Time,TemperatureF,DewpointF,PressureIn,WindDirection,WindDirectionDegrees,WindSpeedMPH,WindSpeedGustMPH,Humidity,HourlyPrecipIn,Conditions,Clouds,dailyrainin,SoftwareType,DateUTC
2013-04-24 00:03:00,43.7,5.3,30.15,South,189,0.0,0.0,20,-99.99,,---,-99.99,VWS V14.01,2013-04-24 07:03:00,
2013-04-24 00:08:00,43.7,5.3,30.15,SSW,193,0.0,0.0,20,-99.99,,---,-99.99,VWS V14.01,2013-04-24 07:08:00,
2013-04-24 00:13:00,43.9,5.4,30.15,South,185,0.0,0.0,20,-99.99,,---,-99.99,VWS V14.01,2013-04-24 07:13:00,
2013-04-24 00:18:00,43.9,5.4,30.15,South,180,0.0,0.0,20,-99.99,,---,-99.99,VWS V14.01,2013-04-24 07:18:00,
2013-04-24 00:23:00,43.9,5.4,30.15,South,177,0.0,0.0,20,-99.99,,---,-99.99,VWS V14.01,2013-04-24 07:23:00,
2013-04-24 00:28:00,43.3,5.0,30.15,South,179,0.0,0.0,20,-99.99,,---,-99.99,VWS V14.01,2013-04-24 07:28:00,
2013-04-24 00:33:00,43.5,5.1,30.15,South,185,0.0,0.0,20,-99.99,,---,-99.99,VWS V14.01,2013-04-24 07:33:00,
2013-04-24 00:38:00,43.7,5.3,30.15,South,183,0.0,0.0,20,-99.99,,---,-99.99,VWS V14.01,2013-04-24 07:38:00,
2013-04-24 00:43:00,43.7,5.3,30.15,South,186,0.0,0.0,20,-99.99,,---,-99.99,VWS V14.01,2013-04-24 07:43:00,
2013-04-24 00:48:00,44.1,5.6,30.15,SSW,194,0.0,0.0,20,-99.99,,---,-99.99,VWS V14.01,2013-04-24 07:48:00,
2013-04-24 00:53:00,44.1,5.6,30.15,South,181,0.0,0.0,20,-99.99,,---,-99.99,VWS V14.01,2013-04-24 07:53:00,
2013-04-24 00:58:00,43.0,4.7,30.15,South,174,0.0,0.0,20,-99.99,,---,-99.99,VWS V14.01,2013-04-24 07:58:00,
2013-04-24 01:03:00,42.6,5.4,30.15,South,178,0.0,0.0,21,-99.99,,---,-99.99,VWS V14.01,2013-04-24 08:03:00,
2013-04-24 01:08:00,42.4,5.3,30.15,South,182,0.0,0.0,21,-99.99,,---,-99.99,VWS V14.01,2013-04-24 08:08:00,
2013-04-24 01:13:00,42.4,5.3,30.15,South,184,0.0,0.0,21,-99.99,,---,-99.99,VWS V14.01,2013-04-24 08:13:00,
2013-04-24 01:18:00,42.4,5.3,30.15,South,186,0.0,0.0,21,-99.99,,---,-99.99,VWS V14.01,2013-04-24 08:18:00,
2013-04-24 01:23:00,42.4,5.3,30.15,South,176,0.0,0.0,21,-99.99,,---,-99.99,VWS V14.01,2013-04-24 08:23:00,
2013-04-24 01:28:00,42.4,5.3,30.15,South,173,0.0,0.0,21,-99.99,,---,-99.99,VWS V14.01,2013-04-24 08:28:00,
2013-04-24 01:33:00,42.3,5.1,30.15,South,174,0.0,0.0,21,-99.99,,---,-99.99,VWS V14.01,2013-04-24 08:33:00,
2013-04-24 01:39:00,42.3,5.1,30.15,South,185,0.0,0.0,21,-99.99,,---,-99.99,VWS V14.01,2013-04-24 08:39:00,
2013-04-24 01:44:00,41.7,4.7,30.15,South,179,0.0,0.0,21,-99.99,,---,-99.99,VWS V14.01,2013-04-24 08:44:00,
2013-04-24 01:49:00,41.5,4.5,30.15,South,174,0.0,0.0,21,-99.99,,---,-99.99,VWS V14.01,2013-04-24 08:49:00,
2013-04-24 01:54:00,41.5,4.5,30.15,South,178,0.0,0.0,21,-99.99,,---,-99.99,VWS V14.01,2013-04-24 08:54:00,
2013-04-24 01:59:00,41.5,4.5,30.15,South,182,0.0,0.0,21,-99.99,,---,-99.99,VWS V14.01,2013-04-24 08:59:00,
2013-04-24 02:04:00,41.5,4.5,30.15,South,177,0.0,0.0,21,-99.99,,---,-99.99,VWS V14.01,2013-04-24 09:04:00,
2013-04-24 02:09:00,42.1,5.0,30.15,South,170,0.0,0.0,21,-99.99,,---,-99.99,VWS V14.01,2013-04-24 09:09:00,
2013-04-24 02:14:00,42.1,5.0,30.15,SSE,163,0.0,0.0,21,-99.99,,---,-99.99,VWS V14.01,2013-04-24 09:14:00,
2013-04-24 02:19:00,42.1,5.0,30.15,SSE,149,0.0,0.0,21,-99.99,,---,-99.99,VWS V14.01,2013-04-24 09:19:00,
2013-04-24 02:24:00,42.1,5.0,30.15,SE,141,0.0,0.0,21,-99.99,,---,-99.99,VWS V14.01,2013-04-24 09:24:00,
2013-04-24 02:29:00,43.0,4.7,30.15,SE,146,0.0,0.0,20,-99.99,,---,-99.99,VWS V14.01,2013-04-24 09:29:00,
2013-04-24 02:34:00,43.2,4.8,30.15,SE,137,0.0,0.0,20,-99.99,,---,-99.99,VWS V14.01,2013-04-24 09:34:00,
2013-04-24 02:39:00,43.3,5.0,30.15,SE,129,0.0,0.0,20,-99.99,,---,-99.99,VWS V14.01,2013-04-24 09:39:00,
2013-04-24 02:44:00,43.3,5.0,30.15,SE,129,0.0,0.0,20,-99.99,,---,-99.99,VWS V14.01,2013-04-24 09:44:00,
2013-04-24 02:49:00,43.9,5.4,30.15,SE,134,0.0,0.0,20,-99.99,,---,-99.99,VWS V14.01,2013-04-24 09:49:00,
2013-04-24 02:54:00,44.1,5.6,30.15,SE,135,0.0,0.0,20,-99.99,,---,-99.99,VWS V14.01,2013-04-24 09:54:00,
2013-04-24 02:59:00,44.1,5.6,30.15,SE,136,0.0,0.0,20,-99.99,,---,-99.99,VWS V14.01,2013-04-24 09:59:00,
2013-04-24 03:04:00,44.1,5.6,30.15,SE,132,0.0,0.0,20,-99.99,,---,-99.99,VWS V14.01,2013-04-24 10:04:00,
2013-04-24 03:09:00,43.9,5.4,30.15,SE,136,0.0,0.0,20,-99.99,,---,-99.99,VWS V14.01,2013-04-24 10:09:00,
2013-04-24 03:14:00,43.9,5.4,30.15,SE,136,0.0,0.0,20,-99.99,,---,-99.99,VWS V14.01,2013-04-24 10:14:00,
2013-04-24 03:19:00,43.9,5.4,30.15,SE,136,0.0,0.0,20,-99.99,,---,-99.99,VWS V14.01,2013-04-24 10:19:00,
2013-04-24 03:24:00,43.9,5.4,30.15,SE,133,0.0,0.0,20,-99.99,,---,-99.99,VWS V14.01,2013-04-24 10:24:00,
2013-04-24 03:29:00,43.9,5.4,30.15,SE,128,0.0,0.0,20,-99.99,,---,-99.99,VWS V14.01,2013-04-24 10:29:00,
2013-04-24 03:34:00,43.9,5.4,30.15,SE,127,0.0,0.0,20,-99.99,,---,-99.99,VWS V14.01,2013-04-24 10:34:00,
2013-04-24 03:40:00,43.5,5.1,30.15,SE,135,0.0,0.0,20,-99.99,,---,-99.99,VWS V14.01,2013-04-24 10:40:00,
2013-04-24 03:45:00,43.5,5.1,30.15,SE,130,0.0,0.0,20,-99.99,,---,-99.99,VWS V14.01,2013-04-24 10:45:00,
2013-04-24 03:50:00,43.5,5.1,30.15,SE,133,0.0,0.0,20,-99.99,,---,-99.99,VWS V14.01,2013-04-24 10:50:00,
2013-04-24 03:55:00,43.5,5.1,30.15,SE,127,0.0,0.0,20,-99.99,,---,-99.99,VWS V14.01,2013-04-24 10:55:00,
2013-04-24 04:00:00,43.5,5.1,30.15,SE,127,0.0,0.0,20,-99.99,,---,-99.99,VWS V14.01,2013-04-24 11:00:00,
2013-04-24 04:05:00,43.0,4.7,30.15,ESE,123,0.0,0.0,20,-99.99,,---,-99.99,VWS V14.01,2013-04-24 11:05:00,
2013-04-24 04:10:00,43.0,4.7,30.15,ESE,119,0.0,0.0,20,-99.99,,---,-99.99,VWS V14.01,2013-04-24 11:10:00,
2013-04-24 04:15:00,43.0,4.7,30.15,ESE,116,0.0,0.0,20,-99.99,,---,-99.99,VWS V14.01,2013-04-24 11:15:00,
2013-04-24 04:20:00,43.0,4.7,30.15,ESE,116,0.0,0.0,20,-99.99,,---,-99.99,VWS V14.01,2013-04-24 11:20:00,
2013-04-24 04:25:00,42.8,4.5,30.15,ESE,113,0.0,0.0,20,-99.99,,---,-99.99,VWS V14.01,2013-04-24 11:25:00,
2013-04-24 04:30:00,42.8,4.5,30.15,ESE,114,0.0,0.0,20,-99.99,,---,-99.99,VWS V14.01,2013-04-24 11:30:00,
2013-04-24 04:35:00,42.6,5.4,30.15,ESE,118,0.0,0.0,21,-99.99,,---,-99.99,VWS V14.01,2013-04-24 11:35:00,
2013-04-24 04:40:00,42.6,5.4,30.15,ESE,116,0.0,0.0,21,-99.99,,---,-99.99,VWS V14.01,2013-04-24 11:40:00,
2013-04-24 04:45:00,42.6,5.4,30.15,ESE,115,0.0,0.0,21,-99.99,,---,-99.99,VWS V14.01,2013-04-24 11:45:00,
2013-04-24 04:50:00,42.3,5.1,30.15,ESE,117,0.0,0.0,21,-99.99,,---,-99.99,VWS V14.01,2013-04-24 11:50:00,
2013-04-24 04:55:00,42.3,5.1,30.15,ESE,114,0.0,0.0,21,-99.99,,---,-99.99,VWS V14.01,2013-04-24 11:55:00,
2013-04-24 05:00:00,42.1,5.0,30.15,ESE,113,0.0,0.0,21,-99.99,,---,-99.99,VWS V14.01,2013-04-24 12:00:00,
2013-04-24 05:05:00,42.1,5.0,30.15,ESE,116,0.0,0.0,21,-99.99,,---,-99.99,VWS V14.01,2013-04-24 12:05:00,
2013-04-24 05:10:00,42.3,5.1,30.15,ESE,113,0.0,0.0,21,-99.99,,---,-99.99,VWS V14.01,2013-04-24 12:10:00,
2013-04-24 05:15:00,42.6,5.4,30.15,ESE,110,0.0,0.0,21,-99.99,,---,-99.99,VWS V14.01,2013-04-24 12:15:00,
2013-04-24 05:20:00,42.8,4.5,30.15,ESE,112,0.0,0.0,20,-99.99,,---,-99.99,VWS V14.01,2013-04-24 12:20:00,
2013-04-24 05:25:00,42.8,4.5,30.15,ESE,120,0.0,0.0,20,-99.99,,---,-99.99,VWS V14.01,2013-04-24 12:25:00,
2013-04-24 05:30:00,42.4,5.3,30.15,SE,124,8.7,9.2,21,-99.99,,---,-99.99,VWS V14.01,2013-04-24 12:30:00,
2013-04-24 05:35:00,42.6,5.4,30.15,ESE,116,11.0,11.0,21,-99.99,,---,-99.99,VWS V14.01,2013-04-24 12:35:00,
2013-04-24 05:40:00,42.4,5.3,30.15,ESE,121,5.8,8.3,21,-99.99,,---,-99.99,VWS V14.01,2013-04-24 12:40:00,
2013-04-24 05:45:00,42.4,5.3,30.15,ESE,121,8.7,12.3,21,-99.99,,---,-99.99,VWS V14.01,2013-04-24 12:45:00,
2013-04-24 05:50:00,42.4,5.3,30.15,ESE,115,11.0,11.0,21,-99.99,,---,-99.99,VWS V14.01,2013-04-24 12:50:00,
2013-04-24 05:55:00,42.4,5.3,30.15,ESE,113,10.1,13.2,21,-99.99,,---,-99.99,VWS V14.01,2013-04-24 12:55:00,
2013-04-24 06:00:00,42.1,5.0,30.15,ESE,114,12.8,12.8,21,-99.99,,---,-99.99,VWS V14.01,2013-04-24 13:00:00,
2013-04-24 06:06:00,42.1,5.0,30.15,ESE,113,10.1,12.3,21,-99.99,,---,-99.99,VWS V14.01,2013-04-24 13:06:00,
2013-04-24 06:10:00,42.1,5.0,30.15,ESE,106,11.0,12.8,21,-99.99,,---,-99.99,VWS V14.01,2013-04-24 13:10:00,
2013-04-24 06:15:00,42.1,5.0,30.15,ESE,111,13.2,13.2,21,-99.99,,---,-99.99,VWS V14.01,2013-04-24 13:15:00,
2013-04-24 06:21:00,42.1,5.0,30.15,ESE,111,13.6,14.1,21,-99.99,,---,-99.99,VWS V14.01,2013-04-24 13:21:00,
2013-04-24 06:26:00,44.1,5.6,30.15,ESE,110,15.0,15.4,20,-99.99,,---,-99.99,VWS V14.01,2013-04-24 13:26:00,
2013-04-24 06:31:00,44.8,6.2,30.15,ESE,112,11.9,15.0,20,-99.99,,---,-99.99,VWS V14.01,2013-04-24 13:31:00,
2013-04-24 06:36:00,44.8,6.2,30.15,ESE,106,13.2,13.2,20,-99.99,,---,-99.99,VWS V14.01,2013-04-24 13:36:00,
2013-04-24 06:41:00,44.8,6.2,30.15,ESE,110,15.0,15.0,20,-99.99,,---,-99.99,VWS V14.01,2013-04-24 13:41:00,
2013-04-24 06:46:00,45.0,6.3,30.15,ESE,110,13.2,13.2,20,-99.99,,---,-99.99,VWS V14.01,2013-04-24 13:46:00,
2013-04-24 06:51:00,44.8,6.2,30.15,ESE,108,12.8,12.8,20,-99.99,,---,-99.99,VWS V14.01,2013-04-24 13:51:00,
2013-04-24 06:56:00,44.8,6.2,30.15,ESE,113,12.8,12.8,20,-99.99,,---,-99.99,VWS V14.01,2013-04-24 13:56:00,
2013-04-24 07:01:00,44.8,6.2,30.15,ESE,111,11.0,11.9,20,-99.99,,---,-99.99,VWS V14.01,2013-04-24 14:01:00,
2013-04-24 07:06:00,45.5,6.8,30.15,ESE,110,12.8,15.0,20,-99.99,,---,-99.99,VWS V14.01,2013-04-24 14:06:00,
2013-04-24 07:11:00,45.9,7.1,30.15,ESE,104,13.2,13.2,20,-99.99,,---,-99.99,VWS V14.01,2013-04-24 14:11:00,
2013-04-24 07:16:00,46.0,7.2,30.15,ESE,104,13.2,13.2,20,-99.99,,---,-99.99,VWS V14.01,2013-04-24 14:16:00,
2013-04-24 07:21:00,46.0,7.2,30.15,ESE,105,10.5,13.6,20,-99.99,,---,-99.99,VWS V14.01,2013-04-24 14:21:00,
2013-04-24 07:26:00,46.0,7.2,30.15,East,99,10.5,11.0,20,-99.99,,---,-99.99,VWS V14.01,2013-04-24 14:26:00,
2013-04-24 07:31:00,46.9,6.8,30.15,East,99,10.1,11.0,19,-99.99,,---,-99.99,VWS V14.01,2013-04-24 14:31:00,
2013-04-24 07:36:00,47.1,7.0,30.15,East,97,11.0,11.0,19,-99.99,,---,-99.99,VWS V14.01,2013-04-24 14:36:00,
2013-04-24 07:41:00,47.5,7.3,30.15,East,97,10.1,11.0,19,-99.99,,---,-99.99,VWS V14.01,2013-04-24 14:41:00,
2013-04-24 07:46:00,47.5,7.3,30.15,East,90,12.3,12.3,19,-99.99,,---,-99.99,VWS V14.01,2013-04-24 14:46:00,
2013-04-24 07:51:00,48.7,8.3,30.15,East,79,13.2,13.2,19,-99.99,,---,-99.99,VWS V14.01,2013-04-24 14:51:00,
2013-04-24 07:56:00,49.3,8.8,30.15,East,84,10.1,10.1,19,-99.99,,---,-99.99,VWS V14.01,2013-04-24 14:56:00,
2013-04-24 08:01:00,49.6,9.1,30.15,ENE,77,11.0,11.0,19,-99.99,,---,-99.99,VWS V14.01,2013-04-24 15:01:00,
2013-04-24 08:09:00,49.6,9.1,30.15,ESE,102,8.1,8.1,19,-99.99,,---,-99.99,VWS V14.01,2013-04-24 15:09:00,
2013-04-24 08:14:00,49.6,9.1,30.15,East,93,11.0,13.2,19,-99.99,,---,-99.99,VWS V14.01,2013-04-24 15:14:00,
2013-04-24 08:19:00,49.6,9.1,30.15,East,81,13.2,13.2,19,-99.99,,---,-99.99,VWS V14.01,2013-04-24 15:19:00,
2013-04-24 08:24:00,50.0,9.4,30.15,East,80,12.8,12.8,19,-99.99,,---,-99.99,VWS V14.01,2013-04-24 15:24:00,
2013-04-24 08:29:00,50.0,9.4,30.15,ENE,72,11.0,11.0,19,-99.99,,---,-99.99,VWS V14.01,2013-04-24 15:29:00,
2013-04-24 08:34:00,50.0,9.4,30.15,ENE,69,10.5,11.9,19,-99.99,,---,-99.99,VWS V14.01,2013-04-24 15:34:00,
2013-04-24 08:39:00,50.4,9.7,30.15,East,89,11.0,11.0,19,-99.99,,---,-99.99,VWS V14.01,2013-04-24 15:39:00,
2013-04-24 08:44:00,50.4,9.7,30.15,ENE,73,13.6,13.6,19,-99.99,,---,-99.99,VWS V14.01,2013-04-24 15:44:00,
2013-04-24 08:49:00,50.5,9.8,30.15,East,85,11.9,12.3,19,-99.99,,---,-99.99,VWS V14.01,2013-04-24 15:49:00,
2013-04-24 08:54:00,50.5,9.8,30.15,East,88,11.0,12.3,19,-99.99,,---,-99.99,VWS V14.01,2013-04-24 15:54:00,
2013-04-24 08:59:00,50.5,9.8,30.15,ENE,77,11.0,12.8,19,-99.99,,---,-99.99,VWS V14.01,2013-04-24 15:59:00,
2013-04-24 09:04:00,51.6,10.7,30.15,NE,52,12.3,12.3,19,-99.99,,---,-99.99,VWS V14.01,2013-04-24 16:04:00,
2013-04-24 09:09:00,52.0,9.8,30.15,East,101,11.9,15.0,18,-99.99,,---,-99.99,VWS V14.01,2013-04-24 16:09:00,
2013-04-24 09:14:00,51.8,9.7,30.15,East,81,10.5,11.0,18,-99.99,,---,-99.99,VWS V14.01,2013-04-24 16:14:00,
2013-04-24 09:19:00,51.8,9.7,30.15,East,84,10.5,15.0,18,-99.99,,---,-99.99,VWS V14.01,2013-04-24 16:19:00,
2013-04-24 09:24:00,53.6,11.1,30.15,ENE,78,13.6,13.6,18,-99.99,,---,-99.99,VWS V14.01,2013-04-24 16:24:00,
2013-04-24 09:29:00,53.6,11.1,30.15,ENE,65,16.3,16.3,18,-99.99,,---,-99.99,VWS V14.01,2013-04-24 16:29:00,
2013-04-24 09:35:00,55.4,11.3,30.15,NE,45,6.3,6.3,17,-99.99,,---,-99.99,VWS V14.01,2013-04-24 16:35:00,
2013-04-24 09:40:00,55.8,11.6,30.15,East,87,15.0,15.0,17,-99.99,,---,-99.99,VWS V14.01,2013-04-24 16:40:00,
2013-04-24 09:44:00,55.8,11.6,30.15,NE,45,8.3,16.3,17,-99.99,,---,-99.99,VWS V14.01,2013-04-24 16:44:00,
2013-04-24 09:50:00,55.8,11.6,30.15,East,84,5.8,12.3,17,-99.99,,---,-99.99,VWS V14.01,2013-04-24 16:50:00,
2013-04-24 09:55:00,57.0,12.7,30.12,East,92,10.5,12.8,17,-99.99,,---,-99.99,VWS V14.01,2013-04-24 16:55:00,
2013-04-24 10:00:00,57.6,13.1,30.12,NE,40,8.7,8.7,17,-99.99,,---,-99.99,VWS V14.01,2013-04-24 17:00:00,
2013-04-24 10:05:00,57.6,13.1,30.12,ENE,65,10.5,12.3,17,-99.99,,---,-99.99,VWS V14.01,2013-04-24 17:05:00,
2013-04-24 10:10:00,57.6,13.1,30.12,East,84,16.8,16.8,17,-99.99,,---,-99.99,VWS V14.01,2013-04-24 17:10:00,
2013-04-24 10:15:00,57.6,13.1,30.12,ENE,60,10.5,10.5,17,-99.99,,---,-99.99,VWS V14.01,2013-04-24 17:15:00,
2013-04-24 10:20:00,58.3,13.7,30.12,ENE,70,15.9,15.9,17,-99.99,,---,-99.99,VWS V14.01,2013-04-24 17:20:00,
2013-04-24 10:25:00,58.8,14.1,30.12,East,92,11.9,11.9,17,-99.99,,---,-99.99,VWS V14.01,2013-04-24 17:25:00,
2013-04-24 10:30:00,58.8,14.1,30.12,ESE,119,8.1,12.3,17,-99.99,,---,-99.99,VWS V14.01,2013-04-24 17:30:00,
2013-04-24 10:35:00,58.8,14.1,30.12,East,86,12.8,12.8,17,-99.99,,---,-99.99,VWS V14.01,2013-04-24 17:35:00,
2013-04-24 10:40:00,58.8,14.1,30.12,NE,55,5.8,10.1,17,-99.99,,---,-99.99,VWS V14.01,2013-04-24 17:40:00,
2013-04-24 10:45:00,59.2,14.4,30.12,ENE,63,5.4,5.4,17,-99.99,,---,-99.99,VWS V14.01,2013-04-24 17:45:00,
2013-04-24 10:50:00,59.2,14.4,30.12,NNE,22,5.8,5.8,17,-99.99,,---,-99.99,VWS V14.01,2013-04-24 17:50:00,
2013-04-24 10:55:00,59.2,14.4,30.12,NE,43,12.8,12.8,17,-99.99,,---,-99.99,VWS V14.01,2013-04-24 17:55:00,
2013-04-24 11:00:00,59.2,14.4,30.12,NNE,12,11.0,11.0,17,-99.99,,---,-99.99,VWS V14.01,2013-04-24 18:00:00,
2013-04-24 11:05:00,59.5,14.7,30.12,North,350,8.7,8.7,17,-99.99,,---,-99.99,VWS V14.01,2013-04-24 18:05:00,
2013-04-24 11:10:00,59.7,14.9,30.12,North,5,12.8,12.8,17,-99.99,,---,-99.99,VWS V14.01,2013-04-24 18:10:00,
2013-04-24 11:15:00,59.7,14.9,30.12,North,11,8.1,9.6,17,-99.99,,---,-99.99,VWS V14.01,2013-04-24 18:15:00,
2013-04-24 11:20:00,59.7,14.9,30.12,North,8,8.3,15.4,17,-99.99,,---,-99.99,VWS V14.01,2013-04-24 18:20:00,
2013-04-24 11:25:00,59.2,14.4,30.12,NNE,23,12.8,12.8,17,-99.99,,---,-99.99,VWS V14.01,2013-04-24 18:25:00,
2013-04-24 11:30:00,60.3,15.3,30.12,North,1,14.1,14.1,17,-99.99,,---,-99.99,VWS V14.01,2013-04-24 18:30:00,
2013-04-24 11:35:00,59.4,14.6,30.12,NNE,15,10.5,10.5,17,-99.99,,---,-99.99,VWS V14.01,2013-04-24 18:35:00,
2013-04-24 11:40:00,59.2,14.4,30.12,NNE,15,8.3,9.6,17,-99.99,,---,-99.99,VWS V14.01,2013-04-24 18:40:00,
2013-04-24 11:45:00,58.8,14.1,30.12,NNE,16,5.4,11.0,17,-99.99,,---,-99.99,VWS V14.01,2013-04-24 18:45:00,
2013-04-24 11:50:00,57.2,12.8,30.12,NNE,13,12.8,12.8,17,-99.99,,---,-99.99,VWS V14.01,2013-04-24 18:50:00,
2013-04-24 11:55:00,56.5,12.2,30.12,NNW,346,16.8,16.8,17,-99.99,,---,-99.99,VWS V14.01,2013-04-24 18:55:00,
2013-04-24 12:00:00,55.9,11.8,30.12,NNE,14,11.4,11.4,17,-99.99,,---,-99.99,VWS V14.01,2013-04-24 19:00:00,
2013-04-24 12:05:00,55.9,11.8,30.12,North,6,15.4,15.4,17,-99.99,,---,-99.99,VWS V14.01,2013-04-24 19:05:00,
2013-04-24 12:10:00,55.9,11.8,30.12,NNE,25,16.8,17.0,17,-99.99,,---,-99.99,VWS V14.01,2013-04-24 19:10:00,
2013-04-24 12:15:00,58.8,14.1,30.12,NNE,13,15.0,15.9,17,-99.99,,---,-99.99,VWS V14.01,2013-04-24 19:15:00,
2013-04-24 12:21:00,58.6,14.0,30.12,North,4,19.7,19.7,17,-99.99,,---,-99.99,VWS V14.01,2013-04-24 19:21:00,
2013-04-24 12:26:00,58.6,14.0,30.12,NE,42,8.7,10.1,17,-99.99,,---,-99.99,VWS V14.01,2013-04-24 19:26:00,
2013-04-24 12:31:00,58.6,14.0,30.12,NNE,29,8.7,8.7,17,-99.99,,---,-99.99,VWS V14.01,2013-04-24 19:31:00,
2013-04-24 12:36:00,58.6,14.0,30.12,NE,44,10.1,11.0,17,-99.99,,---,-99.99,VWS V14.01,2013-04-24 19:36:00,
2013-04-24 12:41:00,56.3,12.1,30.12,North,5,12.8,12.8,17,-99.99,,---,-99.99,VWS V14.01,2013-04-24 19:41:00,
2013-04-24 12:46:00,55.4,11.3,30.12,North,5,6.3,6.3,17,-99.99,,---,-99.99,VWS V14.01,2013-04-24 19:46:00,
2013-04-24 12:51:00,55.4,11.3,30.12,NNE,13,8.7,8.7,17,-99.99,,---,-99.99,VWS V14.01,2013-04-24 19:51:00,
2013-04-24 12:56:00,55.4,11.3,30.12,North,357,10.1,10.1,17,-99.99,,---,-99.99,VWS V14.01,2013-04-24 19:56:00,
2013-04-24 13:01:00,56.7,12.4,30.12,NNE,12,13.2,13.2,17,-99.99,,---,-99.99,VWS V14.01,2013-04-24 20:01:00,
2013-04-24 13:06:00,59.5,14.7,30.12,NNE,14,12.3,12.3,17,-99.99,,---,-99.99,VWS V14.01,2013-04-24 20:06:00,
2013-04-24 13:11:00,61.0,14.5,30.12,North,357,12.8,12.8,16,-99.99,,---,-99.99,VWS V14.01,2013-04-24 20:11:00,